Flag for Poland Weather past 2 weeks in Sosnowiec, Poland

45 °F


Feels Like: 37 °F
Forecast: 33 / 45 °F
Wind: 17 mph from East

Location: Katowice Airport

Current Time: Oct 10, 2015 at 12:03:22 PM

Latest Report: Oct 10, 2015 at 11:30 AM

Visibility: 10 mi

Pressure: 30.18 "Hg

Humidity: 42%

Dew point: 23 °F

Location of SosnowiecLocation

Historic Weather in Sosnowiec — Graph


Sosnowiec temperature yesterday

Maximum temperature yesterday: 52 °F (at 12:30 PM)
Minimum temperature yesterday: 28 °F (at 6:30 AM)
Average temperature yesterday: 41 °F

Past Weeks' High & Low Weather Summary

High73 °F (Oct 4, 3:00 PM)100% (Sep 27, 7:30 AM)30.57 "Hg (Sep 27, 7:30 AM)
Low28 °F (Oct 1, 5:00 AM)32% (Oct 2, 3:00 PM)29.86 "Hg (Oct 6, 4:30 PM)
Average50 °F72%30.22 "Hg
* Reported Sep 25 11:00 AM — Oct 10 11:00 AM, Sosnowiec, Weather by CustomWeather, © 2015

Note: Actual official high and low records may vary slightly from our data, if they occured in-between our weather recording intervals... More about our weather records


Sosnowiec weather history for previous 24 hours

Time TempWeatherWind HumidityBarometerVisibility
11:00 AM
Sat, Oct 10
46 °FSunny.17 mph40%30.18 "Hg10 mi
10:30 AM45 °FSunny.18 mph42%30.18 "Hg10 mi
10:00 AM43 °FSunny.12 mph46%30.18 "Hg10 mi
9:30 AM39 °FSunny.16 mph52%30.21 "Hg10 mi
9:00 AM37 °FSunny.12 mph56%30.21 "Hg10 mi
8:30 AM36 °FSunny.12 mph60%30.21 "Hg10 mi
8:00 AM36 °FSunny.8 mph60%30.21 "Hg10 mi
7:30 AM34 °FClear.7 mph65%30.18 "Hg10 mi
7:00 AM34 °FClear.8 mph65%30.21 "Hg10 mi
6:30 AM34 °FClear.10 mph65%30.18 "Hg10 mi
6:00 AM34 °FClear.9 mph65%30.18 "Hg10 mi
5:30 AM34 °FClear.9 mph65%30.21 "Hg10 mi
5:00 AM34 °FClear.8 mph65%30.21 "Hg10 mi
4:30 AM32 °FClear.8 mph69%30.18 "Hg10 mi
4:00 AM32 °FClear.7 mph69%30.21 "Hg10 mi
3:30 AM34 °FClear.9 mph70%30.21 "Hg10 mi
3:00 AM34 °FClear.8 mph70%30.21 "Hg10 mi
2:30 AM36 °FClear.8 mph65%30.21 "Hg10 mi
2:00 AM36 °FClear.8 mph65%30.21 "Hg10 mi
1:30 AM37 °FClear.9 mph60%30.21 "Hg10 mi
1:00 AM37 °FClear.8 mph60%30.21 "Hg10 mi
12:30 AM37 °FClear.8 mph65%30.21 "Hg10 mi
12:00 AM37 °FClear.8 mph60%30.21 "Hg10 mi
11:00 PM
Fri, Oct 9
39 °FClear.10 mph61%30.21 "Hg10 mi
10:30 PM41 °FClear.10 mph57%30.21 "Hg10 mi
10:00 PM41 °FClear.10 mph57%30.21 "Hg10 mi
9:30 PM43 °FClear.9 mph53%30.21 "Hg10 mi
9:00 PM43 °FClear.9 mph49%30.21 "Hg10 mi
8:30 PM45 °FClear.9 mph46%30.21 "Hg10 mi
8:00 PM45 °FClear.10 mph46%30.21 "Hg10 mi
7:30 PM46 °FClear.13 mph43%30.18 "Hg10 mi
7:00 PM46 °FPassing clouds.9 mph46%30.18 "HgN/A
6:30 PM46 °FSunny.8 mph46%30.18 "Hg10 mi
6:00 PM48 °FSunny.9 mph43%30.18 "Hg10 mi
5:30 PM48 °FSunny.9 mph43%30.18 "Hg10 mi
5:00 PM50 °FSunny.13 mph40%30.15 "Hg10 mi
4:30 PM50 °FPassing clouds.13 mph40%30.15 "HgN/A
4:00 PM50 °FSunny.12 mph43%30.15 "Hg10 mi
3:30 PM52 °FPassing clouds.13 mph38%30.15 "HgN/A
3:00 PM52 °FPassing clouds.13 mph38%30.15 "HgN/A
2:30 PM52 °FPassing clouds.10 mph41%30.15 "HgN/A
2:00 PM52 °FPassing clouds.9 mph44%30.15 "HgN/A
1:30 PM52 °FPassing clouds.12 mph44%30.15 "HgN/A
1:00 PM52 °FPassing clouds.12 mph44%30.15 "HgN/A
12:30 PM52 °FSunny.13 mph44%30.15 "Hg10 mi
12:00 PM50 °FPassing clouds.13 mph47%30.15 "HgN/A
Weather by CustomWeather, © 2015

See weather overviewHow to use our weather pages